Time,TemperatureF,DewpointF,PressureIn,WindDirection,WindDirectionDegrees,WindSpeedMPH,WindSpeedGustMPH,Humidity,HourlyPrecipIn,Conditions,Clouds,dailyrainin,SoftwareType,DateUTC
2013-03-11 00:02:00,44.3,31.0,28.99,NNE,19,0.0,1.0,59,0.00,,,0.00,weatherlink.com 1.10,2013-03-11 05:02:00,
2013-03-11 00:17:00,43.6,30.0,29.00,NNE,19,0.0,0.0,59,0.00,,,0.00,weatherlink.com 1.10,2013-03-11 05:17:00,
2013-03-11 00:32:00,41.9,32.0,29.00,NNE,19,2.0,3.0,68,0.00,,,0.00,weatherlink.com 1.10,2013-03-11 05:32:00,
2013-03-11 00:47:00,39.8,31.0,29.00,NNE,19,1.0,3.0,72,0.00,,,0.00,weatherlink.com 1.10,2013-03-11 05:47:00,
2013-03-11 01:02:00,39.1,32.0,29.00,NNE,19,2.0,3.0,75,0.00,,,0.00,weatherlink.com 1.10,2013-03-11 06:02:00,
2013-03-11 01:17:00,38.6,32.0,29.01,NNE,19,2.0,3.0,78,0.00,,,0.00,weatherlink.com 1.10,2013-03-11 06:17:00,
2013-03-11 01:33:00,37.6,31.0,29.01,NNE,19,1.0,3.0,78,0.00,,,0.00,weatherlink.com 1.10,2013-03-11 06:33:00,
2013-03-11 01:48:00,36.9,32.0,29.01,NNE,19,2.0,3.0,81,0.00,,,0.00,weatherlink.com 1.10,2013-03-11 06:48:00,
2013-03-11 02:03:00,36.3,31.0,29.00,NNE,22,1.0,3.0,80,0.00,,,0.00,weatherlink.com 1.10,2013-03-11 07:03:00,
2013-03-11 02:18:00,35.3,31.0,29.00,NE,37,2.0,5.0,83,0.00,,,0.00,weatherlink.com 1.10,2013-03-11 07:18:00,
2013-03-11 02:34:00,35.3,31.0,29.00,NE,37,2.0,4.0,83,0.00,,,0.00,weatherlink.com 1.10,2013-03-11 07:34:00,
2013-03-11 02:48:00,36.0,31.0,29.00,NE,37,3.0,4.0,82,0.00,,,0.00,weatherlink.com 1.10,2013-03-11 07:48:00,
2013-03-11 03:03:00,35.2,31.0,28.99,NE,38,2.0,3.0,83,0.00,,,0.00,weatherlink.com 1.10,2013-03-11 08:03:00,
2013-03-11 03:18:00,35.2,31.0,28.99,NE,41,0.0,4.0,83,0.00,,,0.00,weatherlink.com 1.10,2013-03-11 08:18:00,
2013-03-11 03:33:00,35.5,30.0,28.98,NE,41,0.0,1.0,81,0.00,,,0.00,weatherlink.com 1.10,2013-03-11 08:33:00,
2013-03-11 04:03:00,36.9,29.0,28.99,NE,41,0.0,0.0,73,0.00,,,0.00,weatherlink.com 1.10,2013-03-11 09:03:00,
2013-03-11 04:18:00,36.9,29.0,28.98,NE,36,2.0,6.0,72,0.00,,,0.00,weatherlink.com 1.10,2013-03-11 09:18:00,
2013-03-11 04:33:00,37.9,28.0,28.98,North,5,8.0,8.0,67,0.00,,,0.00,weatherlink.com 1.10,2013-03-11 09:33:00,
2013-03-11 04:48:00,40.2,25.0,28.98,NNW,333,5.0,7.0,56,0.00,,,0.00,weatherlink.com 1.10,2013-03-11 09:48:00,
2013-03-11 05:03:00,40.2,25.0,28.99,NNW,344,5.0,9.0,56,0.00,,,0.00,weatherlink.com 1.10,2013-03-11 10:03:00,
2013-03-11 05:18:00,39.3,25.0,28.99,NNW,345,5.0,10.0,56,0.00,,,0.00,weatherlink.com 1.10,2013-03-11 10:18:00,
2013-03-11 05:33:00,38.8,25.0,28.99,NNW,338,4.0,10.0,58,0.00,,,0.00,weatherlink.com 1.10,2013-03-11 10:33:00,
2013-03-11 05:48:00,38.6,25.0,28.99,North,355,3.0,8.0,58,0.00,,,0.00,weatherlink.com 1.10,2013-03-11 10:48:00,
2013-03-11 06:03:00,38.5,25.0,28.99,NNW,348,4.0,8.0,58,0.00,,,0.00,weatherlink.com 1.10,2013-03-11 11:03:00,
2013-03-11 06:18:00,38.3,25.0,28.99,NNW,342,4.0,8.0,58,0.00,,,0.00,weatherlink.com 1.10,2013-03-11 11:18:00,
2013-03-11 06:33:00,38.3,24.0,29.00,NW,326,2.0,8.0,57,0.00,,,0.00,weatherlink.com 1.10,2013-03-11 11:33:00,
2013-03-11 06:48:00,37.9,24.0,29.00,NW,325,0.0,5.0,57,0.00,,,0.00,weatherlink.com 1.10,2013-03-11 11:48:00,
2013-03-11 07:03:00,37.6,23.0,29.01,NW,319,4.0,7.0,56,0.00,,,0.00,weatherlink.com 1.10,2013-03-11 12:03:00,
2013-03-11 07:18:00,37.9,23.0,29.01,NW,309,3.0,6.0,55,0.00,,,0.00,weatherlink.com 1.10,2013-03-11 12:18:00,
2013-03-11 07:33:00,37.3,23.0,29.01,NW,323,4.0,6.0,57,0.00,,,0.00,weatherlink.com 1.10,2013-03-11 12:33:00,
2013-03-11 07:48:00,37.0,23.0,29.01,NNW,333,4.0,5.0,57,0.00,,,0.00,weatherlink.com 1.10,2013-03-11 12:48:00,
2013-03-11 08:03:00,37.0,22.0,29.02,NNW,332,1.0,5.0,56,0.00,,,0.00,weatherlink.com 1.10,2013-03-11 13:03:00,
2013-03-11 08:18:00,37.6,23.0,29.02,NNW,338,2.0,6.0,55,0.00,,,0.00,weatherlink.com 1.10,2013-03-11 13:18:00,
2013-03-11 08:33:00,38.0,23.0,29.03,WNW,298,2.0,7.0,55,0.00,,,0.00,weatherlink.com 1.10,2013-03-11 13:33:00,
2013-03-11 08:48:00,38.8,23.0,29.04,WNW,288,4.0,8.0,53,0.00,,,0.00,weatherlink.com 1.10,2013-03-11 13:48:00,
2013-03-11 09:03:00,39.3,23.0,29.04,NNW,338,2.0,8.0,52,0.00,,,0.00,weatherlink.com 1.10,2013-03-11 14:03:00,
2013-03-11 09:18:00,40.1,22.0,29.04,WNW,295,3.0,9.0,49,0.00,,,0.00,weatherlink.com 1.10,2013-03-11 14:18:00,
2013-03-11 09:33:00,41.2,23.0,29.05,West,277,3.0,7.0,48,0.00,,,0.00,weatherlink.com 1.10,2013-03-11 14:33:00,
2013-03-11 09:48:00,42.1,23.0,29.05,NNW,346,1.0,7.0,46,0.00,,,0.00,weatherlink.com 1.10,2013-03-11 14:48:00,
2013-03-11 10:03:00,43.8,23.0,29.05,NW,313,5.0,7.0,44,0.00,,,0.00,weatherlink.com 1.10,2013-03-11 15:03:00,
2013-03-11 10:18:00,45.1,19.0,29.05,NNE,19,7.0,14.0,36,0.00,,,0.00,weatherlink.com 1.10,2013-03-11 15:18:00,
2013-03-11 10:33:00,46.0,21.0,29.05,WNW,294,1.0,14.0,38,0.00,,,0.00,weatherlink.com 1.10,2013-03-11 15:33:00,
2013-03-11 10:48:00,46.5,20.0,29.05,West,263,2.0,14.0,35,0.00,,,0.00,weatherlink.com 1.10,2013-03-11 15:48:00,
2013-03-11 11:04:00,47.9,21.0,29.05,West,281,2.0,11.0,34,0.00,,,0.00,weatherlink.com 1.10,2013-03-11 16:04:00,
2013-03-11 11:18:00,48.9,17.0,29.05,NW,314,4.0,12.0,28,0.00,,,0.00,weatherlink.com 1.10,2013-03-11 16:18:00,
2013-03-11 11:34:00,49.1,17.0,29.04,North,355,5.0,15.0,28,0.00,,,0.00,weatherlink.com 1.10,2013-03-11 16:34:00,
2013-03-11 11:48:00,50.1,20.0,29.03,West,281,7.0,15.0,31,0.00,,,0.00,weatherlink.com 1.10,2013-03-11 16:48:00,
2013-03-11 12:04:00,50.7,22.0,29.03,West,274,10.0,19.0,33,0.00,,,0.00,weatherlink.com 1.10,2013-03-11 17:04:00,
2013-03-11 12:19:00,51.3,17.0,29.03,NNW,334,4.0,14.0,26,0.00,,,0.00,weatherlink.com 1.10,2013-03-11 17:19:00,
2013-03-11 12:34:00,52.6,21.0,29.02,West,263,10.0,10.0,29,0.00,,,0.00,weatherlink.com 1.10,2013-03-11 17:34:00,
2013-03-11 12:49:00,53.2,21.0,29.02,West,273,2.0,10.0,28,0.00,,,0.00,weatherlink.com 1.10,2013-03-11 17:49:00,
2013-03-11 13:04:00,54.2,20.0,29.01,West,264,6.0,16.0,26,0.00,,,0.00,weatherlink.com 1.10,2013-03-11 18:04:00,
2013-03-11 13:19:00,55.3,21.0,29.00,WNW,287,4.0,12.0,26,0.00,,,0.00,weatherlink.com 1.10,2013-03-11 18:19:00,
2013-03-11 13:34:00,56.0,20.0,29.00,West,269,4.0,9.0,25,0.00,,,0.00,weatherlink.com 1.10,2013-03-11 18:34:00,
2013-03-11 13:49:00,57.0,21.0,28.99,WSW,253,6.0,10.0,25,0.00,,,0.00,weatherlink.com 1.10,2013-03-11 18:49:00,
2013-03-11 14:04:00,58.3,22.0,28.98,West,263,4.0,11.0,25,0.00,,,0.00,weatherlink.com 1.10,2013-03-11 19:04:00,
2013-03-11 14:19:00,59.3,24.0,28.96,West,260,7.0,10.0,26,0.00,,,0.00,weatherlink.com 1.10,2013-03-11 19:19:00,
2013-03-11 14:34:00,59.9,21.0,28.95,West,263,6.0,12.0,22,0.00,,,0.00,weatherlink.com 1.10,2013-03-11 19:34:00,
2013-03-11 14:49:00,60.9,26.0,28.94,WSW,241,8.0,11.0,26,0.00,,,0.00,weatherlink.com 1.10,2013-03-11 19:49:00,
2013-03-11 15:04:00,61.0,23.0,28.94,WSW,250,8.0,12.0,23,0.00,,,0.00,weatherlink.com 1.10,2013-03-11 20:04:00,
2013-03-11 15:19:00,61.8,21.0,28.93,SW,236,8.0,12.0,21,0.00,,,0.00,weatherlink.com 1.10,2013-03-11 20:19:00,
2013-03-11 15:34:00,62.1,24.0,28.92,West,265,3.0,16.0,23,0.00,,,0.00,weatherlink.com 1.10,2013-03-11 20:34:00,
2013-03-11 15:49:00,62.7,21.0,28.91,West,265,9.0,14.0,20,0.00,,,0.00,weatherlink.com 1.10,2013-03-11 20:49:00,
2013-03-11 16:04:00,63.5,31.0,28.91,NW,308,3.0,8.0,29,0.00,,,0.00,weatherlink.com 1.10,2013-03-11 21:04:00,
2013-03-11 16:19:00,64.2,24.0,28.90,WSW,253,8.0,10.0,22,0.00,,,0.00,weatherlink.com 1.10,2013-03-11 21:19:00,
2013-03-11 16:34:00,64.3,23.0,28.90,West,281,0.0,16.0,21,0.00,,,0.00,weatherlink.com 1.10,2013-03-11 21:34:00,
2013-03-11 16:49:00,64.8,23.0,28.89,West,273,3.0,11.0,20,0.00,,,0.00,weatherlink.com 1.10,2013-03-11 21:49:00,
2013-03-11 17:04:00,65.2,28.0,28.89,West,264,3.0,9.0,25,0.00,,,0.00,weatherlink.com 1.10,2013-03-11 22:04:00,
2013-03-11 17:19:00,65.8,31.0,28.88,West,274,5.0,8.0,27,0.00,,,0.00,weatherlink.com 1.10,2013-03-11 22:19:00,
2013-03-11 17:34:00,65.6,24.0,28.88,West,264,5.0,8.0,21,0.00,,,0.00,weatherlink.com 1.10,2013-03-11 22:34:00,
2013-03-11 17:49:00,66.1,26.0,28.88,West,275,4.0,5.0,22,0.00,,,0.00,weatherlink.com 1.10,2013-03-11 22:49:00,
2013-03-11 18:05:00,66.4,23.0,28.88,West,275,5.0,6.0,19,0.00,,,0.00,weatherlink.com 1.10,2013-03-11 23:05:00,
2013-03-11 18:19:00,66.4,24.0,28.88,West,274,0.0,6.0,20,0.00,,,0.00,weatherlink.com 1.10,2013-03-11 23:19:00,
2013-03-11 18:35:00,66.0,25.0,28.88,NW,313,3.0,7.0,21,0.00,,,0.00,weatherlink.com 1.10,2013-03-11 23:35:00,
2013-03-11 18:50:00,65.0,24.0,28.88,North,11,3.0,5.0,21,0.00,,,0.00,weatherlink.com 1.10,2013-03-11 23:50:00,
2013-03-11 19:05:00,64.7,26.0,28.88,North,10,0.0,4.0,23,0.00,,,0.00,weatherlink.com 1.10,2013-03-12 00:05:00,
2013-03-11 19:20:00,63.5,25.0,28.88,NNE,17,0.0,3.0,23,0.00,,,0.00,weatherlink.com 1.10,2013-03-12 00:20:00,
2013-03-11 19:35:00,62.6,25.0,28.89,NNE,28,3.0,5.0,24,0.00,,,0.00,weatherlink.com 1.10,2013-03-12 00:35:00,
2013-03-11 19:50:00,60.9,26.0,28.89,NE,36,1.0,3.0,26,0.00,,,0.00,weatherlink.com 1.10,2013-03-12 00:50:00,
2013-03-11 20:05:00,59.3,25.0,28.89,NE,36,0.0,4.0,27,0.00,,,0.00,weatherlink.com 1.10,2013-03-12 01:05:00,
2013-03-11 20:20:00,57.3,26.0,28.89,NE,36,2.0,3.0,30,0.00,,,0.00,weatherlink.com 1.10,2013-03-12 01:20:00,
2013-03-11 20:35:00,54.5,27.0,28.89,NE,37,2.0,4.0,35,0.00,,,0.00,weatherlink.com 1.10,2013-03-12 01:35:00,
2013-03-11 20:50:00,54.4,28.0,28.89,NE,38,2.0,4.0,36,0.00,,,0.00,weatherlink.com 1.10,2013-03-12 01:50:00,
2013-03-11 21:05:00,53.6,28.0,28.89,NE,38,1.0,4.0,37,0.00,,,0.00,weatherlink.com 1.10,2013-03-12 02:05:00,
2013-03-11 21:20:00,52.3,28.0,28.90,NE,38,3.0,4.0,39,0.00,,,0.00,weatherlink.com 1.10,2013-03-12 02:20:00,
2013-03-11 21:35:00,50.4,29.0,28.90,NE,52,2.0,4.0,44,0.00,,,0.00,weatherlink.com 1.10,2013-03-12 02:35:00,
2013-03-11 21:50:00,49.6,30.0,28.91,NE,52,2.0,4.0,47,0.00,,,0.00,weatherlink.com 1.10,2013-03-12 02:50:00,
2013-03-11 22:05:00,49.6,29.0,28.91,NE,52,3.0,4.0,45,0.00,,,0.00,weatherlink.com 1.10,2013-03-12 03:05:00,
2013-03-11 22:20:00,48.9,29.0,28.91,NE,53,2.0,5.0,47,0.00,,,0.00,weatherlink.com 1.10,2013-03-12 03:20:00,
2013-03-11 22:35:00,48.0,29.0,28.92,NE,53,3.0,4.0,49,0.00,,,0.00,weatherlink.com 1.10,2013-03-12 03:35:00,
2013-03-11 22:50:00,47.9,30.0,28.92,NE,53,3.0,4.0,51,0.00,,,0.00,weatherlink.com 1.10,2013-03-12 03:50:00,
2013-03-11 23:05:00,47.3,31.0,28.93,NE,54,2.0,5.0,53,0.00,,,0.00,weatherlink.com 1.10,2013-03-12 04:05:00,
2013-03-11 23:20:00,46.7,31.0,28.93,NE,54,3.0,4.0,54,0.00,,,0.00,weatherlink.com 1.10,2013-03-12 04:20:00,
2013-03-11 23:35:00,45.8,30.0,28.93,NE,54,0.0,4.0,55,0.00,,,0.00,weatherlink.com 1.10,2013-03-12 04:35:00,
2013-03-11 23:50:00,45.1,32.0,28.93,NE,54,1.0,3.0,61,0.00,,,0.00,weatherlink.com 1.10,2013-03-12 04:50:00,